FW8708 Weather Reports


time (UTC)temp
F
wind
direction
speed
knots
gust
knots
rain 1hr
in
rain 24hr
in
rain mn
in
humidity
%
barometer
mb
20260906093013 63 268 1.7 3.5 0.00 0.02 0.00 97 1012.6
20260906092513 63 303 2.6 3.5 0.00 0.02 0.00 97 1012.6
20260906092015 63 25 0.9 1.7 0.00 0.02 0.00 97 1012.5
20260906091519 63 25 0.0 1.7 0.00 0.02 0.00 97 1012.5
20260906091012 63 25 0.9 1.7 0.00 0.02 0.00 97 1012.4
20260906090512 63 24 0.9 1.7 0.00 0.02 0.00 97 1012.3
20260906090015 63 25 0.0 1.7 0.00 0.02 0.00 97 1012.3
20260906085510 64 25 0.0 1.7 0.00 0.02 0.00 97 1012.4
20260906085010 64 25 0.0 1.7 0.00 0.02 0.00 97 1012.4
20260906084611 64 25 0.0 1.7 0.00 0.02 0.00 97 1012.3
20260906084009 64 24 0.0 1.7 0.00 0.02 0.00 96 1012.5
20260906083513 64 24 0.0 3.5 0.00 0.02 0.00 96 1012.3
20260906083009 65 24 1.7 4.3 0.00 0.02 0.00 97 1012.3
20260906082509 64 24 2.6 4.3 0.00 0.02 0.00 97 1012.3
20260906082008 64 355 2.6 4.3 0.00 0.02 0.00 97 1012.3
20260906081510 64 339 1.7 4.3 0.00 0.02 0.00 96 1012.4
20260906081007 64 348 1.7 2.6 0.00 0.02 0.00 96 1012.5
20260906080507 64 321 0.0 1.7 0.00 0.02 0.00 95 1012.6
20260906080006 64 236 0.0 0.0 0.00 0.02 0.00 95 1012.6
20260906075505 64 236 0.0 0.0 0.00 0.02 0.00 95 1012.7
20260906075005 65 236 0.0 0.0 0.00 0.02 0.00 95 1012.6
20260906074503 65 236 0.0 0.0 0.00 0.02 0.00 94 1012.5
20260906074002 65 236 0.0 0.0 0.00 0.02 0.00 94 1012.4
20260906073503 65 249 0.0 0.0 0.00 0.02 0.00 94 1012.5
20260906073001 66 249 0.0 0.0 0.00 0.02 0.00 93 1012.4
20260906072501 66 249 0.0 0.0 0.00 0.02 0.00 93 1012.4
20260906072004 66 249 0.0 1.7 0.00 0.02 0.00 94 1012.4
20260906071601 66 249 0.0 4.3 0.00 0.02 0.00 94 1012.4
20260906071100 66 249 1.7 6.1 0.00 0.02 0.00 94 1012.4
20260906070559 67 246 2.6 6.1 0.00 0.02 0.00 93 1012.5
20260906065602 67 242 1.7 4.3 0.00 0.02 0.00 92 1012.3
20260906065100 67 219 1.7 6.1 0.00 0.02 0.00 92 1012.3
20260906064559 68 227 1.7 6.1 0.00 0.02 0.00 92 1012.4
20260906064058 68 238 1.7 4.3 0.00 0.02 0.00 92 1012.6
20260906063600 68 211 1.7 4.3 0.00 0.02 0.00 92 1012.7
20260906063057 68 261 2.6 8.7 0.00 0.02 0.00 92 1012.9
20260906062556 68 250 4.3 8.7 0.00 0.02 0.00 91 1013.0
20260906062056 68 250 4.3 9.6 0.00 0.02 0.00 91 1013.0
20260906061558 69 270 6.1 8.7 0.00 0.02 0.00 91 1013.0
20260906061056 69 302 5.2 8.7 0.00 0.02 0.00 91 1013.1
20260906060554 69 262 5.2 9.6 0.00 0.02 0.00 91 1013.2
20260906060054 69 263 6.1 9.6 0.00 0.02 0.00 91 1013.2
20260906055553 69 271 4.3 7.8 0.00 0.02 0.00 91 1013.3
20260906055053 68 278 4.3 7.8 0.00 0.02 0.00 91 1013.3
20260906054602 68 292 4.3 7.8 0.00 0.02 0.00 92 1013.3
20260906054050 68 284 2.6 7.8 0.00 0.02 0.00 92 1013.4
20260906053548 67 275 3.5 7.0 0.00 0.02 0.00 93 1013.4
20260906053057 67 279 3.5 6.1 0.00 0.02 0.00 94 1013.3
20260906052550 66 304 1.7 4.3 0.00 0.02 0.00 95 1013.3
20260906052048 66 313 0.9 3.5 0.00 0.02 0.00 95 1013.4
20260906051605 66 317 0.0 1.7 0.00 0.02 0.00 94 1013.4
20260906051048 66 317 0.0 2.6 0.00 0.02 0.00 94 1013.4
20260906050548 66 317 0.9 2.6 0.00 0.02 0.00 94 1013.5
20260906050047 66 317 1.7 2.6 0.00 0.02 0.00 94 1013.5
20260906045546 66 321 0.0 0.9 0.00 0.02 0.00 94 1013.6
20260906045048 66 321 0.0 0.0 0.00 0.02 0.00 94 1013.5
20260906044552 66 321 0.0 1.7 0.00 0.02 0.00 94 1013.5
20260906044045 66 321 0.0 2.6 0.00 0.02 0.00 94 1013.4
20260906043546 66 321 0.9 2.6 0.00 0.02 0.00 93 1013.4
20260906043046 66 275 0.0 2.6 0.00 0.02 0.00 93 1013.6
20260906042543 67 275 1.7 2.6 0.00 0.02 0.00 93 1013.4
20260906042045 67 275 0.0 2.6 0.00 0.02 0.00 93 1013.4
20260906041542 67 275 0.9 2.6 0.00 0.02 0.00 93 1013.4
20260906041042 67 275 0.9 1.7 0.00 0.02 0.00 93 1013.3
20260906040540 67 275 0.0 1.7 0.00 0.02 0.00 92 1013.4
20260906040116 67 275 0.0 1.7 0.00 0.02 0.00 92 1013.5
20260906035539 67 275 0.9 3.5 0.00 0.02 0.02 92 1013.6
20260906035039 68 275 1.7 3.5 0.00 0.02 0.02 92 1013.7
20260906034539 68 300 1.7 2.6 0.00 0.02 0.02 91 1013.7
20260906034038 68 300 0.9 3.5 0.00 0.02 0.02 91 1013.6
20260906033538 68 300 1.7 3.5 0.00 0.02 0.02 91 1013.6
20260906033051 68 301 0.9 2.6 0.00 0.02 0.02 91 1013.6
20260906032539 68 301 0.0 2.6 0.00 0.02 0.02 90 1013.4
20260906032038 69 301 0.0 2.6 0.00 0.02 0.02 90 1013.6
20260906031537 69 301 0.9 2.6 0.00 0.02 0.02 89 1013.8
20260906031039 70 355 0.0 0.0 0.00 0.02 0.02 89 1013.8
20260906030537 70 355 0.0 0.0 0.00 0.02 0.02 89 1013.7
20260906030038 70 355 0.0 0.0 0.00 0.02 0.02 89 1013.7
20260906025537 70 355 0.0 1.7 0.00 0.02 0.02 89 1013.9
20260906025037 70 355 0.0 3.5 0.00 0.02 0.02 89 1014.0
20260906024537 70 325 0.9 2.6 0.00 0.02 0.02 89 1013.9
20260906024037 70 326 0.0 2.6 0.00 0.02 0.02 89 1013.9
20260906023538 70 326 0.9 2.6 0.00 0.02 0.02 89 1013.8
20260906023035 70 325 0.0 1.7 0.00 0.02 0.02 89 1013.7
20260906022535 70 326 0.0 3.5 0.00 0.02 0.02 89 1013.6
20260906022035 70 326 0.9 3.5 0.00 0.02 0.02 88 1013.6
20260906021536 70 304 0.0 1.7 0.00 0.02 0.02 88 1013.6
20260906021036 70 304 0.0 1.7 0.00 0.02 0.02 87 1013.6
20260906020537 70 304 0.0 3.5 0.00 0.02 0.02 87 1013.6
20260906020036 70 304 0.0 3.5 0.00 0.02 0.02 88 1013.6
20260906015536 70 309 0.9 3.5 0.00 0.02 0.02 88 1013.6
20260906015034 70 11 0.0 2.6 0.00 0.02 0.02 88 1013.4
20260906014535 70 11 0.0 2.6 0.00 0.02 0.02 88 1013.3
20260906014034 70 11 0.0 3.5 0.00 0.02 0.02 87 1013.3
20260906013534 70 11 0.9 3.5 0.00 0.02 0.02 87 1013.4
20260906013035 70 11 1.7 3.5 0.00 0.02 0.02 87 1013.3
20260906012533 70 11 0.0 3.5 0.00 0.02 0.02 87 1013.3
20260906012033 70 15 0.9 3.5 0.00 0.02 0.02 87 1013.4
20260906011533 71 316 0.0 2.6 0.00 0.02 0.02 86 1013.3
20260906011033 71 315 0.0 1.7 0.00 0.02 0.02 85 1013.4
20260906010535 71 315 0.0 1.7 0.00 0.02 0.02 85 1013.3
20260906010033 72 316 0.9 3.5 0.00 0.02 0.02 84 1013.4
20260906005532 72 316 1.7 3.5 0.00 0.02 0.02 84 1013.3
20260906005033 72 315 0.0 2.6 0.00 0.02 0.02 83 1013.1
20260906004532 73 315 0.0 2.6 0.00 0.02 0.02 82 1013.0
20260906004034 73 315 0.0 3.5 0.00 0.02 0.02 82 1012.8
20260906003535 73 315 1.7 5.2 0.00 0.02 0.02 82 1012.7
20260906003032 73 287 0.9 5.2 0.00 0.02 0.02 82 1012.5
20260906002534 73 265 0.0 5.2 0.00 0.02 0.02 81 1012.5
20260906002033 73 263 2.6 7.8 0.00 0.02 0.02 81 1012.5
20260906001534 73 311 0.9 3.5 0.00 0.02 0.02 81 1012.6
20260906001031 73 312 0.9 3.5 0.00 0.02 0.02 81 1012.6
20260906000531 74 15 0.9 4.3 0.00 0.02 0.02 81 1012.4
20260906000031 74 283 1.7 5.2 0.00 0.02 0.02 80 1012.3
20260905235531 74 282 1.7 7.0 0.00 0.02 0.02 80 1012.3
20260905235030 74 9 1.7 7.8 0.00 0.02 0.02 80 1012.3
20260905234531 74 332 2.6 7.8 0.00 0.02 0.02 80 1012.3
20260905234029 74 340 0.9 7.0 0.00 0.02 0.02 79 1012.2
20260905233530 75 307 3.5 9.6 0.00 0.02 0.02 78 1012.2
20260905233029 75 296 4.3 9.6 0.00 0.02 0.02 78 1012.0
20260905232529 75 283 3.5 9.6 0.00 0.02 0.02 77 1012.1
20260905232029 76 331 5.2 9.6 0.00 0.02 0.02 76 1011.9
20260905231529 76 336 3.5 8.7 0.00 0.02 0.02 75 1012.0
20260905231029 77 339 2.6 7.0 0.00 0.02 0.02 74 1012.1
20260905230528 77 22 2.6 7.0 0.00 0.02 0.02 73 1012.2
20260905230028 77 350 3.5 7.0 0.00 0.02 0.02 73 1012.4
20260905225529 77 342 2.6 9.6 0.00 0.02 0.02 72 1012.3
20260905225028 78 325 4.3 9.6 0.00 0.02 0.02 71 1012.5
20260905224604 78 355 1.7 9.6 0.00 0.02 0.02 71 1012.4
20260905224026 78 345 4.3 9.6 0.00 0.02 0.02 70 1012.5
20260905223526 78 308 4.3 7.8 0.00 0.02 0.02 70 1012.4
20260905223027 78 346 2.6 8.7 0.00 0.02 0.02 69 1012.3
20260905222528 78 333 4.3 8.7 0.00 0.02 0.02 69 1012.6
20260905222027 78 348 3.5 10.4 0.00 0.02 0.02 68 1012.7
20260905221526 79 5 5.2 10.4 0.00 0.02 0.02 67 1012.6
20260905221028 79 321 4.3 8.7 0.00 0.02 0.02 67 1012.5
20260905220526 79 321 5.2 8.7 0.00 0.02 0.02 67 1012.7
20260905220026 79 321 4.3 10.4 0.00 0.02 0.02 67 1012.7
20260905215526 79 340 5.2 9.6 0.00 0.02 0.02 65 1012.8
20260905215025 80 342 4.3 8.7 0.00 0.02 0.02 66 1012.7
20260905214525 80 327 3.5 7.8 0.00 0.02 0.02 66 1012.7
20260905214025 80 305 3.5 7.0 0.00 0.02 0.02 67 1012.6
20260905213525 80 336 2.6 7.0 0.00 0.02 0.02 66 1012.6
20260905213024 80 290 1.7 7.8 0.00 0.02 0.02 66 1012.7
20260905212533 80 315 2.6 9.6 0.00 0.02 0.02 66 1012.6
20260905212024 80 321 3.5 9.6 0.00 0.02 0.02 66 1012.7
20260905211539 80 355 3.5 8.7 0.00 0.02 0.02 67 1012.6
20260905211026 80 279 4.3 8.7 0.00 0.02 0.02 66 1012.5
20260905210524 80 327 3.5 7.8 0.00 0.02 0.02 66 1012.4
20260905210038 79 333 4.3 8.7 0.00 0.02 0.02 67 1012.4
20260905205524 79 316 3.5 8.7 0.00 0.02 0.02 66 1012.3
20260905205023 79 333 3.5 13.0 0.00 0.02 0.02 66 1012.3
20260905204524 79 296 5.2 13.0 0.00 0.02 0.02 66 1012.3
20260905204022 79 307 6.1 11.3 0.00 0.02 0.02 68 1012.3
20260905203521 78 320 4.3 11.3 0.00 0.02 0.02 69 1012.3
20260905203021 79 321 3.5 9.6 0.00 0.02 0.02 72 1012.3
20260905202526 78 315 1.7 7.0 0.00 0.02 0.02 74 1012.3
20260905202021 78 271 5.2 7.0 0.00 0.02 0.02 73 1012.2
20260905201522 78 254 4.3 7.0 0.00 0.02 0.02 72 1012.2
20260905201020 78 265 2.6 7.0 0.00 0.02 0.02 75 1012.2
20260905200526 78 259 4.3 9.6 0.00 0.02 0.02 74 1012.1
20260905200026 77 284 3.5 9.6 0.00 0.02 0.02 71 1012.0
20260905195521 77 312 6.1 9.6 0.00 0.02 0.02 70 1012.0
20260905195023 77 261 6.1 8.7 0.00 0.02 0.02 72 1011.8
20260905194520 77 21 3.5 12.2 0.00 0.02 0.02 73 1011.8
20260905194019 76 303 6.1 8.7 0.00 0.02 0.02 73 1011.8
20260905193520 76 335 3.5 7.0 0.00 0.02 0.02 76 1011.8
20260905193019 75 329 3.5 8.7 0.00 0.02 0.02 78 1011.7
20260905192519 74 239 4.3 8.7 0.00 0.02 0.02 79 1011.7
20260905192018 74 296 1.7 10.4 0.00 0.02 0.02 81 1011.6
20260905191518 74 284 5.2 10.4 0.00 0.02 0.02 79 1011.5
20260905191018 74 274 5.2 10.4 0.00 0.02 0.02 79 1011.5
20260905190518 74 255 5.2 10.4 0.00 0.02 0.02 80 1011.6
20260905190020 74 307 5.2 10.4 0.00 0.02 0.02 78 1011.4
20260905185517 74 292 6.1 10.4 0.00 0.02 0.02 78 1011.5
20260905185016 73 284 3.5 10.4 0.00 0.02 0.02 80 1011.8
20260905184526 72 323 6.1 11.3 0.00 0.02 0.02 80 1012.1
20260905184015 72 297 6.1 11.3 0.00 0.02 0.02 81 1012.2
20260905183515 71 279 5.2 10.4 0.00 0.02 0.02 84 1012.1
20260905183015 71 338 3.5 13.9 0.01 0.02 0.02 85 1012.1
20260905182515 70 351 3.5 13.9 0.01 0.02 0.02 84 1012.2
20260905182016 70 270 7.8 15.6 0.01 0.02 0.02 85 1012.3
20260905181515 69 255 6.1 15.6 0.02 0.02 0.02 88 1012.1
20260905181013 69 225 5.2 12.2 0.02 0.02 0.02 88 1012.2
20260905180518 69 244 5.2 10.4 0.02 0.02 0.02 89 1012.6
20260905180013 69 213 2.6 4.3 0.02 0.02 0.02 86 1011.8
20260905175512 69 323 0.9 3.5 0.02 0.02 0.02 87 1012.5
20260905175010 69 317 1.7 3.5 0.02 0.02 0.02 87 1013.0
20260905174509 69 339 1.7 5.2 0.02 0.02 0.02 87 1013.4
20260905174008 69 296 1.7 3.5 0.02 0.02 0.02 86 1013.6
20260905173507 69 315 1.7 9.6 0.02 0.02 0.02 86 1013.8
20260905173007 69 11 2.6 10.4 0.01 0.01 0.01 86 1014.1
20260905172506 69 334 3.5 14.8 0.01 0.01 0.01 86 1014.4
20260905172009 70 323 6.1 14.8 0.01 0.01 0.01 85 1014.8
20260905171506 70 340 7.0 12.2 0.00 0.00 0.00 86 1014.9
20260905171007 71 11 5.2 12.2 0.00 0.00 0.00 87 1015.1
20260905170505 72 18 7.0 13.9 0.00 0.00 0.00 85 1015.3
20260905170005 73 45 8.7 19.1 0.00 0.00 0.00 79 1015.7
20260905165504 76 305 9.6 25.2 0.00 0.00 0.00 74 1015.9
20260905165004 78 333 11.3 25.2 0.00 0.00 0.00 70 1015.4
20260905164507 79 339 5.2 13.0 0.00 0.00 0.00 77 1014.8
20260905164003 80 306 5.2 11.3 0.00 0.00 0.00 77 1014.9
20260905163503 80 11 5.2 11.3 0.00 0.00 0.00 75 1014.9
20260905163003 81 315 4.3 11.3 0.00 0.00 0.00 75 1014.8
20260905162504 81 355 4.3 16.5 0.00 0.00 0.00 74 1014.8
20260905162003 81 319 9.6 19.1 0.00 0.00 0.00 72 1014.7
20260905161505 82 302 9.6 19.1 0.00 0.00 0.00 72 1014.5
20260905161001 82 319 7.8 12.2 0.00 0.00 0.00 71 1014.1
20260905160502 83 301 7.0 11.3 0.00 0.00 0.00 72 1013.9
20260905160001 83 297 4.3 13.0 0.00 0.00 0.00 73 1014.1
20260905155101 83 355 8.7 13.9 0.00 0.00 0.00 73 1014.2
20260905154611 83 346 6.1 13.0 0.00 0.00 0.00 74 1014.3
20260905154102 83 339 6.1 12.2 0.00 0.00 0.00 74 1014.2
20260905153558 82 305 7.0 12.2 0.00 0.00 0.00 74 1014.3
20260905153058 82 343 6.1 12.2 0.00 0.00 0.00 75 1014.3
20260905152557 82 333 4.3 11.3 0.00 0.00 0.00 77 1014.4
20260905152056 81 321 5.2 12.2 0.00 0.00 0.00 76 1014.4
20260905151556 81 285 7.0 12.2 0.00 0.00 0.00 75 1014.3
20260905151055 81 269 2.6 11.3 0.00 0.00 0.00 76 1014.3
20260905150555 81 11 3.5 11.3 0.00 0.00 0.00 76 1014.2
20260905150101 82 294 6.1 12.2 0.00 0.00 0.00 76 1014.1
20260905145555 82 22 7.0 12.2 0.00 0.00 0.00 75 1014.1
20260905145054 81 328 6.1 10.4 0.00 0.00 0.00 79 1014.1
20260905144553 81 324 5.2 10.4 0.00 0.00 0.00 79 1014.1
20260905144051 80 288 3.5 12.2 0.00 0.00 0.00 79 1014.3
20260905143550 80 11 6.1 12.2 0.00 0.00 0.00 79 1014.3
20260905143050 80 13 3.5 9.6 0.00 0.00 0.00 80 1014.3
20260905142555 80 338 6.1 12.2 0.00 0.00 0.00 79 1014.4
20260905142050 80 344 6.1 12.2 0.00 0.00 0.00 79 1014.4
20260905141550 80 296 6.1 11.3 0.00 0.00 0.00 78 1014.4
20260905141048 80 311 6.1 12.2 0.00 0.00 0.00 80 1014.4
20260905140547 79 299 6.1 12.2 0.00 0.00 0.00 81 1014.4
20260905140045 79 305 5.2 9.6 0.00 0.00 0.00 81 1014.3
20260905135545 79 331 5.2 9.6 0.00 0.00 0.00 81 1014.3
20260905135045 79 297 4.3 8.7 0.00 0.00 0.00 81 1014.2
20260905134542 78 281 3.5 9.6 0.00 0.00 0.00 83 1014.2
20260905134041 78 297 5.2 9.6 0.00 0.00 0.00 81 1014.2
20260905133541 77 327 4.3 7.8 0.00 0.00 0.00 82 1014.3
20260905133041 77 297 3.5 9.6 0.00 0.00 0.00 83 1014.3
20260905132540 77 276 5.2 9.6 0.00 0.00 0.00 82 1014.3
20260905132041 77 300 3.5 9.6 0.00 0.00 0.00 82 1014.3
20260905131538 78 271 2.6 9.6 0.00 0.00 0.00 82 1014.4
20260905131038 78 302 4.3 9.6 0.00 0.00 0.00 82 1014.5
20260905130538 78 288 3.5 11.3 0.00 0.00 0.00 82 1014.7
20260905130037 77 306 4.3 11.3 0.00 0.00 0.00 82 1014.6
20260905125540 77 360 3.5 8.7 0.00 0.00 0.00 81 1014.7
20260905125035 77 297 3.5 7.8 0.00 0.00 0.00 82 1014.7
20260905124535 77 301 2.6 7.0 0.00 0.00 0.00 83 1014.7
20260905124032 77 302 1.7 8.7 0.00 0.00 0.00 82 1014.7
20260905123531 76 302 5.2 8.7 0.00 0.00 0.00 82 1014.6
20260905123030 76 298 3.5 7.8 0.00 0.00 0.00 83 1014.6
20260905122530 75 306 2.6 7.8 0.00 0.00 0.00 84 1014.6
20260905122027 74 311 2.6 7.0 0.00 0.00 0.00 86 1014.7
20260905121526 73 265 1.7 5.2 0.00 0.00 0.00 87 1014.6
20260905121025 73 266 2.6 7.0 0.00 0.00 0.00 87 1014.6
20260905120522 72 265 3.5 9.6 0.00 0.00 0.00 87 1014.5
20260905120022 72 249 5.2 9.6 0.00 0.00 0.00 87 1014.5
20260905115526 72 265 5.2 9.6 0.00 0.00 0.00 87 1014.4
20260905115023 72 263 6.1 9.6 0.00 0.00 0.00 87 1014.4
20260905114521 72 255 6.1 8.7 0.00 0.00 0.00 87 1014.4
20260905114019 71 306 3.5 8.7 0.00 0.00 0.00 88 1014.3
20260905113524 71 283 3.5 8.7 0.00 0.00 0.00 88 1014.3
20260905113018 71 269 4.3 9.6 0.00 0.00 0.00 88 1014.3
20260905112517 71 266 5.2 9.6 0.00 0.00 0.00 88 1014.3
20260905112018 70 245 7.0 9.6 0.00 0.00 0.00 88 1014.3
20260905111519 70 254 5.2 8.7 0.00 0.00 0.00 88 1014.2
20260905111017 70 261 3.5 7.8 0.00 0.00 0.00 88 1014.2
20260905110519 70 259 4.3 7.8 0.00 0.00 0.00 88 1014.2
20260905110016 71 272 5.2 7.0 0.00 0.00 0.00 88 1014.2
20260905105517 71 271 4.3 7.0 0.00 0.00 0.00 88 1014.2
20260905105015 71 269 1.7 5.2 0.00 0.00 0.00 88 1014.0
20260905104514 70 265 2.6 5.2 0.00 0.00 0.00 88 1014.0
20260905104017 70 272 2.6 5.2 0.00 0.00 0.00 89 1014.1
20260905103515 70 265 2.6 6.1 0.00 0.00 0.00 90 1014.0
20260905103014 69 285 2.6 7.0 0.00 0.00 0.00 90 1014.1
20260905102510 69 288 2.6 7.0 0.00 0.00 0.00 91 1014.1
20260905102009 68 268 3.5 7.0 0.00 0.00 0.00 92 1014.0
20260905101509 68 279 3.5 7.0 0.00 0.00 0.00 92 1014.1
20260905101008 68 299 1.7 4.3 0.00 0.00 0.00 92 1014.2
20260905100508 68 275 2.6 5.2 0.00 0.00 0.00 93 1014.2
20260905100008 68 249 2.6 6.1 0.00 0.00 0.00 93 1014.1
20260905095508 67 228 0.9 3.5 0.00 0.00 0.00 93 1014.1
20260905095008 68 246 1.7 4.3 0.00 0.00 0.00 93 1014.1
20260905094509 68 233 0.9 5.2 0.00 0.00 0.00 93 1014.1
20260905094007 68 253 1.7 5.2 0.00 0.00 0.00 93 1014.0
20260905093507 68 254 0.9 4.3 0.00 0.00 0.00 93 1014.0